Preview of NWS' New Version of Forecast
This preview is not operational and should not be used for support decisions.
Latest weather observations around

Ardmore, Ardmore Municipal Airport (KADM)

Using English Units (Switch to International System of Units)
Date/ Time (CST) Wind (mph) Vis. (mi) Weather Sky Cond. Temp (°F) Rel. Humidity Wind Chill (°F) Heat Index (°F) Pressure Precip. (in)
Air Dwpt 6 hour Altimeter (inHg) Sea level (inHg) 1 hr 3 hr 6 hr
Max Min
Feb 19 08:55 NE 10 10 Cloudy OVC029 37 25     60% 30   30.22        
Feb 19 07:55 ENE 8 10 Cloudy BKN033 OVC044 37 25     60% 31   30.23        
Feb 19 06:55 ENE 8 10 Mostly Cloudy SCT044 BKN065 BKN090 36 25     64% 29   30.22        
Feb 19 06:35 ENE 5 10 Clear   36 24     62% 32   30.22        
Feb 19 06:15 ENE 9 10 Clear   36 24     61% 29   30.22        
Feb 19 05:55 ENE 9 10 Clear   36 25     63% 29   30.23        
Feb 19 05:35 ENE 9 10 Mostly Cloudy BKN090 36 25     64% 29   30.23        
Feb 19 05:15 ENE 10 10 Cloudy OVC090 36 25     64% 28   30.22        
Feb 19 04:55 ENE 10 10 Mostly Cloudy BKN090 35 25     66% 28   30.24        
Feb 19 04:35 ENE 10 10 Mostly Cloudy BKN090 35 25     67% 27   30.24        
Feb 19 04:15 ENE 9 10 Partly Cloudy SCT090 35 25     68% 27   30.26        
Feb 19 03:55 ENE 10 10 Partly Cloudy SCT090 35 25     67% 27   30.26        
Feb 19 03:35 NE 8 10 Cloudy OVC090 35 25     67% 29   30.28        
Feb 19 03:15 ENE 8 10 Mostly Cloudy BKN090 35 25     66% 29   30.28        
Feb 19 02:55 NE 6 10 Mostly Cloudy BKN090 35 25     65% 30   30.29        
Feb 19 02:35 NE 8 10 Partly Cloudy SCT090 35 24     65% 29   30.28        
Feb 19 02:15 NE 8 10 Partly Cloudy SCT100 36 24     63% 29   30.29        
Feb 19 01:55 ENE 8 10 Cloudy OVC100 36 24     62% 29   30.3        
Feb 19 01:35 ENE 11 10 Cloudy OVC100 36 24     61% 28   30.3        
Feb 19 01:15 ENE 9 10 Mostly Cloudy BKN100 36 24     62% 29   30.31        
Feb 19 00:55 ENE 8 10 Mostly Cloudy BKN100 35 24     62% 29   30.31        
Feb 19 00:35 ENE 9 10 Partly Cloudy SCT100 35 24     62% 28   30.32        
Feb 19 00:15 ENE 6 10 Clear CLR 35 23     62% 30   30.33        
Feb 18 23:55 NE 9 10 Clear CLR 36 23     60% 29   30.34        
Feb 18 23:35 NE 7 10 Partly Cloudy SCT110 36 23     60% 30   30.35        
Feb 18 23:15 NE 8 10 Partly Cloudy SCT110 36 23     60% 29   30.35        
Feb 18 22:55 ENE 8 10 Partly Cloudy SCT110 36 23     60% 29   30.35        
Feb 18 21:55 NE 10 10 Cloudy OVC110 36 23     60% 28   30.36        
Feb 18 20:55 NE 11 10 Cloudy OVC100 36 21     55% 28   30.34        
Feb 18 19:55 NE 10 10 Mostly Cloudy BKN100 37 21     52% 30   30.34        
Feb 18 18:55 NE 8 10 Partly Cloudy SCT100 37 21     52% 31   30.35        
Feb 18 17:55 NNE 13 10 Partly Cloudy SCT100 SCT120 37 19     48% 29   30.33        
Feb 18 15:55 NNE 10 10 Clear CLR 41 19     42% 35   30.33        
Feb 18 14:55 NNE 14 10 Clear CLR 41 19     42% 33   30.33        
Feb 18 13:55 N 14 10 Clear CLR 41 19     42% 33   30.34        
Feb 18 12:55 NNE 10 10 Clear CLR 37 19     48% 30   30.38        
Feb 18 11:55 NNE 10 10 Clear CLR 36 19     51% 28   30.41        
Feb 18 10:55 NNE 10 10 Clear CLR 32 18     55% 24   30.4        
Feb 18 09:55 NE 15 10 Clear CLR 30 18     59% 19   30.4        
Feb 18 08:55 NNE 15 10 Clear CLR 28 19     69% 17   30.38        
Feb 18 07:55 NNE 11 10 Clear CLR 25 18     74% 14   30.36        
Feb 18 06:55 NNE 9 10 Clear CLR 25 19     80% 15   30.35        
Feb 18 06:35 NNE 9 10 Clear CLR 26 19     77% 16   30.34        
Feb 18 06:15 NNE 11 10 Clear CLR 26 19     75% 16   30.33        
Feb 18 05:55 NNE 11 10 Clear CLR 27 20     76% 16   30.32        
Feb 18 05:35 NNE 10 10 Clear CLR 27 20     75% 18   30.31        
Feb 18 05:15 N 7 10 Clear CLR 28 20     72% 21   30.31        
Feb 18 04:55 NNE 8 10 Clear CLR 28 20     71% 20   30.3        
Feb 18 04:35 N 11 10 Clear CLR 29 20     70% 19   30.29        
Feb 18 04:15 N 14 10 Clear CLR 29 20     69% 19   30.28        
Feb 18 03:55 NNE 9 10 Clear CLR 29 21     70% 21   30.27        
Feb 18 03:35 NNE 11 10 Clear   29 22     75% 20   30.27        
Feb 18 03:15 NNE 10 10 Clear   31 22     71% 22   30.26        
Feb 18 02:55 NNE 11 10 Clear   31 23     71% 22   30.25        
Feb 18 02:35 NNE 13 10 Clear CLR 32 24     71% 22   30.25        
Feb 18 02:15 NNE 7 10 Clear CLR 32 24     73% 25   30.25        
Feb 18 01:55 NNE 8 10 Clear CLR 32 24     72% 25   30.23        
Feb 18 01:35 NE 6 10 Clear CLR 33 24     69% 28   30.22        
Feb 18 01:15 NE 8 10 Clear CLR 34 25     70% 27   30.21        
Feb 18 00:55 NNE 6 10 Clear CLR 34 25     68% 29   30.2        
Feb 18 00:35 NE 7 10 Partly Cloudy SCT110 35 25     66% 29   30.19        
Feb 18 00:15 NE 6 10 Clear CLR 36 26     66% 31   30.17        
Feb 17 23:55 NE 8 10 Clear CLR 37 26     64% 31   30.16        
Feb 17 23:35 NE 10 10 Clear CLR 38 26     62% 31   30.15        
Feb 17 23:15 NNE 9 10 Clear CLR 38 27     63% 32   30.16        
Feb 17 22:55 NNE 9 10 Clear CLR 39 27     62% 33   30.16        
Feb 17 22:35 NNE 10 10 Clear CLR 40 27     62% 33   30.16        
Feb 17 22:15 N 8 10 Clear CLR 39 28     63% 33   30.16        
Feb 17 21:55 N 8 10 Clear CLR 40 27     60% 35   30.16        
Feb 17 21:35 N 8 10 Clear CLR 40 28     62% 34   30.16        
Feb 17 21:15 N 7 10 Partly Cloudy SCT110 39 27     63% 34   30.15        
Feb 17 20:55 N 6 10 Clear CLR 41 27     57% 37   30.14        
Feb 17 20:35 NNE 7 10 Partly Cloudy SCT110 42 27     55% 37   30.13        
Feb 17 20:15 NNE 7 10 Partly Cloudy SCT110 42 26     54% 37   30.12        
Feb 17 19:55 NNE 6 10 Clear CLR 44 27     51% 40   30.1        
Feb 17 19:35 NNE 7 10 Clear CLR 43 27     51% 39   30.08        
Feb 17 19:15 NNE 6 10 Clear CLR 43 27     52% 40   30.07        
Feb 17 18:55 NNE 7 10 Clear CLR 44 26     49% 40   30.05        
Feb 17 18:35 NNE 6 10 Clear CLR 46 26     45% 43   30.03        
Feb 17 18:15 NNE 6 10 Clear CLR 47 26     42% 45   30.02        
Feb 17 17:55 NNE 7 10 Clear CLR 50 26     38% 47   30        
Feb 17 17:35 NNE 8 10 Clear CLR 51 26     37%     30        
Feb 17 17:15 N 9 10 Clear CLR 52 27     37%     29.99        
Feb 17 16:55 N 9 10 Clear CLR 52 26     36%     29.98        
Feb 17 15:55 NNW 10 10 Clear CLR 54 28     38%     29.97        
Feb 17 14:55 NW 14 10 Clear CLR 54 28     38%     29.97        
Feb 17 13:55 NNW 7 10 Clear CLR 48 30     50% 45   29.98        
Feb 17 12:55 N 6 10 Clear CLR 45 30     57% 41   29.99        
Feb 17 11:55 NNW 8 10 Clear CLR 43 30     61% 38   30.01        
Feb 17 10:55 NW 10 10 Clear CLR 41 30     65% 35   30        
Feb 17 09:55 N 13 10 Clear CLR 39 30     70% 32   29.99        
Feb 17 08:55 NNW 11 10 Partly Cloudy SCT014 36 32     87% 28   29.99        
Feb 17 07:55 NW 7 7 Cloudy OVC016 34 30     86% 28   29.96        
Feb 17 06:55 NW 9 4 Fog/Mist BKN020 34 32     93% 26   29.93        
Feb 17 06:35 WNW 5 4 Fog/Mist SCT022 33 32     96% 29   29.9        
Feb 17 06:15 NW 6 4 Fog/Mist CLR 34 32     94% 29   29.89        
Feb 17 05:55 NW 6 5 Fog/Mist SCT016 34 32     93% 29   29.87        
Feb 17 05:35 N 11 5 Fog/Mist SCT008 BKN016 35 33     89% 27   29.85        
Feb 17 05:15 N 10 5 Fog/Mist BKN008 OVC012 36 35     95% 29   29.84        
Feb 17 04:55 N 7 7 Cloudy OVC012 36 34     93% 31   29.83        
Feb 17 04:35 N 9 7 Cloudy BKN009 OVC014 36 35     95% 29   29.81        
Feb 17 04:15 NNW 8 5 Fog/Mist OVC009 36 36     97% 30   29.81        
Feb 17 03:55 N 10 5 Fog/Mist BKN009 OVC017 36 36     97% 29   29.8        
Feb 17 03:35 NNW 13 5 Fog/Mist BKN007 OVC013 36 36     98% 28   29.8        
Feb 17 03:15 NNW 10 3 Fog/Mist OVC005 37 36     99% 29   29.79        
Feb 17 02:55 NNW 11 2.5 Fog/Mist BKN005 OVC013 38 38     100% 30   29.8        
Feb 17 02:35 NNW 14 4 Fog/Mist BKN005 OVC012 38 38     100% 29   29.8        
Feb 17 02:15 NNW 9 3 Fog/Mist BKN003 OVC010 38 38     100% 31   29.8        
Feb 17 01:55 NNW 9 1.75 Fog/Mist BKN003 OVC010 38 38     100% 32   29.79        
Feb 17 01:35 N 9 1.75 Fog/Mist BKN003 OVC008 38 38     100% 32   29.78        
Feb 17 01:15 NNW 6 1.5 Fog/Mist OVC003 39 39     100% 34   29.77        
Feb 17 00:55 NNE 3 1.25 Fog/Mist OVC003 38 38     100% 36   29.74        
Feb 17 00:35 NNW 3 1 Clear   38 38     100% 36   29.75        
Feb 17 00:15 N 6 0.75 Clear   38 38     100% 34   29.74        
Feb 16 23:55 SSE 3 1.25 Clear   38 38     100% 36   29.71        
Feb 16 23:35 Calm 1.25 Fog/Mist OVC005 38 38     100%     29.74        
Feb 16 23:15 Calm 1.25 Fog/Mist BKN001 OVC005 38 38     100%     29.73        
Feb 16 22:55 E 3 1.25 Fog/Mist OVC003 38 38     100% 35   29.72        
Feb 16 22:35 E 3 1.25 Fog/Mist OVC003 38 38     100% 35   29.73        
Feb 16 22:15 NE 6 1 Fog/Mist OVC003 38 38     100% 33   29.72        
Feb 16 21:55 N 5 1 Fog/Mist OVC003 38 38     100% 34   29.73        
Feb 16 21:35 Calm 1 Fog/Mist OVC003 37 37     100%     29.71        
Feb 16 21:15 Calm 1 Fog/Mist OVC003 38 38     100%     29.71        
Feb 16 20:55 Calm 1 Fog/Mist OVC003 37 37     100%     29.69        
Feb 16 20:35 SE 7 1 Fog/Mist OVC003 37 37     100% 32   29.67        
Feb 16 20:15 SE 7 1 Fog/Mist OVC003 37 37     100% 32   29.66        
Feb 16 19:55 SE 7 0.75 Fog/Mist OVC003 37 37     100% 31   29.66        
Feb 16 19:35 ESE 3 0.75 Fog/Mist OVC003 36 36     99% 34   29.67        
Feb 16 19:15 SE 3 1 Fog/Mist OVC003 36 36     99% 34   29.67        
Feb 16 18:55 SSE 8 1 Fog/Mist OVC003 36 36     98% 30   29.66        
Feb 16 18:35 SE 5 1.25 Fog/Mist OVC005 36 36     98% 32   29.67        
Feb 16 18:15 SE 3 1.5 Fog/Mist OVC005 36 36     99% 33   29.67        
Feb 16 17:55 S 3 2.5 Fog/Mist OVC007 36 35     96% 34   29.68        
Feb 16 17:35 SSE 5 3 Fog/Mist OVC007 36 35     94% 33   29.68        
Feb 16 17:15 SSE 3 4 Fog/Mist OVC007 36 35     93% 34   29.68        
Feb 16 16:55 SE 3 3 Fog/Mist OVC007 36 34     92% 34   29.68        
Feb 16 15:55 Calm 5 Fog/Mist OVC007 36 34     93%     29.71        
Feb 16 14:55 Calm 4 Fog/Mist OVC007 36 32     87%     29.74        
Feb 16 13:55 Calm 7 Cloudy OVC007 34 32     93%     29.8        
Feb 16 12:55 Calm 10 Cloudy OVC007 34 32     93%     29.83        
Feb 16 11:55 Calm 5 Fog/Mist OVC005 32 30     93%     29.87        
Feb 16 10:55 Calm 3 Fog/Mist OVC005 30 30     100%     29.91        
Feb 16 09:55 Calm 5 Fog/Mist OVC005 30 28     93%     29.94        
May 15 00:35 N 11 10 Thunderstorms and Rain BKN036 BKN043 76 69     78%   77 29.94        
May 14 23:35 Calm 10 Partly Cloudy SCT055 78 69     73%   79 29.89        
May 14 18:55 SSE 10 10 Clear CLR 85 69     58%   89 29.83        
May 14 00:15 Calm 10 Partly Cloudy SCT070 72 67     85%   73 29.97        
May 13 21:55 SE 3 10 Clear CLR 77 67     73%   77 29.94        
May 13 18:15 SSE 8 10 Partly Cloudy SCT047 SCT060 SCT070 86 68     54%   90 29.91        
May 13 13:55 SSE 13 10 Partly Cloudy SCT040 SCT046 88 70     55%   93 29.98        
May 13 02:15 SSE 6 10 Clear CLR 72 66     82%   73 29.94        
May 12 17:55 SSE 17 10 Clear CLR 86 66     51%   88 29.89        
May 12 01:35 SE 3 10 Clear CLR 72 63     75%   72 29.88        
May 12 00:55 Calm 10 Clear CLR 72 64     75%   72 29.87        
May 11 21:15 S 6 10 Clear CLR 77 63     62%   78 29.81        
May 11 20:55 SSE 8 10 Clear CLR 78 63     60%   79 29.8        
May 11 16:55 S 13 10 Clear CLR 86 65     49%   87 29.81        
May 11 15:55 S 22 10 Clear and Windy CLR 86 63     46%   87 29.82        
Jun 12 07:55 SSE 5 10 Partly Cloudy SCT013 SCT090 77 72     83%   78 29.93        
Notice The following observation data may not be complete
Jun 12 07:15   10 Clear CLR          %              
Jun 11 22:15 SE 5 10 Clear CLR 76 65     67%   77 29.89        
Jun 11 21:15 SE 7 10 Clear CLR 80 63     58%   81 29.86        
Jun 11 16:55 SSE 15 10 Clear CLR 90 68     49%   93 29.87        
Jun 11 02:20 SE 6 10 Clear CLR 73 66     79%   74 29.87        
Jun 10 21:55 SSE 13 10 Clear CLR 80 66     62%   82 29.85        
Notice The following observation data may not be complete
Jun 10 04:15   10 Clear CLR          %              
Notice The following observation data may not be complete
Jun 09 22:15   10 Cloudy OVC037          %              
Jun 08 22:35 ESE 5 10 Clear CLR 71 62     73%   71 29.92        
Jun 08 22:15 ESE 5 10 Clear CLR 71 62     73%   71 29.91        
Jun 08 20:40 E 5 10 Clear CLR 75 62     63%   76 29.89        
Jun 08 10:55 SSE 8 10 Clear CLR 81 59     48%   81 30.03        
Notice The following observation data may not be complete
Jun 08 05:35   10 Clear CLR          %              
Jun 08 04:55 Calm 10 Clear CLR 61 59     93%     30        
Jun 06 12:55 N 15 10 Clear CLR 91 61     36%   91 29.91        
Notice The following observation data may not be complete
Jun 06 08:55   10 Clear CLR          %              
Jun 06 02:55 Calm 7 Clear   70 70     99%     29.86        
Notice The following observation data may not be complete
Jun 06 00:35   10 Clear CLR          %              
Notice The following observation data may not be complete
Jun 05 20:35   10 Clear CLR          %